Regional Weather Roundup
Issued by NWS Upton, NY

Current Version | Previous Version | Graphics & Text | Print | Product List | Glossary Off
Versions: 1 2 3 4 5 6 7 8 9 10 11 12 13 14 15 16 17 18 19 20 21 22 23 24 25 26 27 28 29 30 31 32 33 34 35 36 37 38 39 40 41 42 43 44 45 46 47 48 49 50

000
ASUS41 KOKX 060505
RWROKX

REGIONAL WEATHER ROUNDUP
NATIONAL WEATHER SERVICE NEW YORK NY
1200 AM EST FRI MAR 06 2015

NOTE: "FAIR" INDICATES FEW OR NO CLOUDS BELOW 12,000 FEET WITH NO
SIGNIFICANT WEATHER AND/OR OBSTRUCTIONS TO VISIBILITY.

NYZ071-072-176-178-NJZ106-104-060600-
NEW YORK CITY METRO AREA


CITY           SKY/WX    TMP DP  RH WIND       PRES   REMARKS
CENTRAL PARK   MOCLDY    19   3  49 VRB7      30.40R WCI  10
LAGUARDIA APRT CLOUDY    21   6  52 NW20      30.38R WCI   6
KENNEDY INTL   CLOUDY    21   5  50 NW17G25   30.38R WCI   7
NEWARK/LIBERTY MOCLDY    20   6  55 NW20G30   30.39R WCI   4
BRNX BOT. GARD   N/A    N/A N/A N/A NW14      30.38R
TETERBORO      MOCLDY    19   2  47 NW14      30.39R WCI   6
$$

NYZ177-179-078>081-060600-
LONG ISLAND NEW YORK

CITY           SKY/WX    TMP DP  RH WIND       PRES   REMARKS
FARMINGDALE    CLOUDY    21   7  54 NW14      30.35R WCI   8
ISLIP          CLOUDY    20   7  57 N20G26    30.31R WCI   4
SHIRLEY        CLOUDY    20   9  62 N13       30.34R WCI   7
WESTHAMPTON    CLOUDY    21  10  62 NW15      30.33R WCI   8
MONTAUK POINT    N/A     24   8  50 N15G23    30.31R WCI  11
$$

NYZ052-065-067-060600-
HUDSON VALLEY

CITY           SKY/WX    TMP DP  RH WIND       PRES   REMARKS
WHITE PLAINS   MOCLDY    17   3  54 NW8       30.33R WCI   7
NEWBURGH       PTCLDY    14   3  62 NW12      30.38R WCI   0
MONTGOMERY     PTCLDY    14   0  53 NW15      30.38R WCI  -1
POUGHKEEPSIE   PTCLDY    17  -1  45 NW12      30.41R WCI   4
ALBANY         CLEAR     11  -5  48 NW12      30.43R WCI  -3
$$

NJZ001-105-106-008-010-013-015-019>022-104-060600-
NEW JERSEY

CITY           SKY/WX    TMP DP  RH WIND       PRES   REMARKS
NEWARK/LIBERTY MOCLDY    20   6  55 NW20G30   30.39R WCI   4
TETERBORO      MOCLDY    19   2  47 NW14      30.39R WCI   6
CALDWELL       MOCLDY    17   2  51 N10       30.40R WCI   5
MORRISTOWN     MOCLDY    19   3  49 NW13      30.40R WCI   7
SOMERVILLE     PTCLDY    17   5  59 N7        30.40R WCI   8
SUSSEX         CLEAR     14  -1  51 NW9       30.39R WCI   2
ANDOVER          N/A     13   0  56 MISG      30.39R
TRENTON        MOCLDY    18   4  54 NW15G22   30.39R WCI   4
MILLVILLE      CLOUDY    21  32 100 NW10      30.39S WCI  10
ATLANTIC CITY  CLOUDY    20  11  68 NW16      30.37R WCI   6
WRIGHTSTOWN    NOT AVBL
TOMS RIVER     CLOUDY    19  12  73 NW10G17   30.38R WCI   8
BELMAR         CLOUDY    19   7  58 NW16      30.36R WCI   5
$$

PAZ047>061-062-071-060600-
EASTERN PENNSYLVANIA

CITY           SKY/WX    TMP DP  RH WIND       PRES   REMARKS
PHILADELPHIA   CLOUDY    20   8  60 N10       30.43R WCI   9
ALLENTOWN      CLEAR     14   0  53 N10       30.43R WCI   1
SCRANTON       CLEAR     11  -2  56 N8        30.40R WCI  -1
$$

CTZ002-004>006-009-010-012-RIZ004-006-007-MAZ004-011-015-060600-
SOUTHERN NEW ENGLAND
 IN CT

CITY           SKY/WX    TMP DP  RH WIND       PRES   REMARKS
BRADLEY INTL   MOCLDY    19  -1  41 NW21G28   30.34R WCI   3
HARTFORD       CLOUDY    18   1  47 NW12G23   30.37R WCI   5
DANBURY        MOCLDY    15   0  51 N7        30.36R WCI   5
WTRBRY/OXFORD  MOCLDY    14  -2  48 N15G21    30.32R WCI  -1
BRIDGEPORT     CLOUDY    19   6  57 N18G25    30.35R WCI   4
MERIDEN        CLOUDY    19   2  47 NW13G23   30.36R WCI   6
NEW HAVEN      CLOUDY    20   5  52 N16G22    30.34R WCI   6
CHESTER        FAIR      19   9  63 N14       30.30R WCI   6
GROTON         CLOUDY    20   8  60 N15       30.30R WCI   6
WILLIMANTIC    CLOUDY    20   2  45 NW10G21   30.32R WCI   9

 IN RI

CITY           SKY/WX    TMP DP  RH WIND       PRES   REMARKS
PROVIDENCE     CLOUDY    20   5  52 N15       30.30R WCI   6
BLOCK ISLAND   CLOUDY    21   7  53 N12G22    30.27R WCI   9
WESTERLY       CLOUDY    21  10  62 N9        30.30R WCI  11

 IN MA

CITY           SKY/WX    TMP DP  RH WIND       PRES   REMARKS
BOSTON         CLOUDY    18  -4  37 NW17G25   30.32R WCI   3
WORCESTER      PTCLDY    14  -4  44 NW15G23   30.24R WCI  -1
WESTFIELD      PTCLDY    16  -1  47 NW14      30.34R WCI   2
PROVINCETOWN   CLOUDY    21   9  58 N18G24    30.27R WCI   6
NANTUCKET      CLOUDY    23  13  65 N15       30.24R WCI  10
$$

ANZ330-335-338-340-345-350-353-355-060600-
COASTAL MARINE OBSERVATIONS


STATION/POSITION TIME  SKY/WX   TEMP    WIND        PRES    VSBY  WAVE
                                AIR SEA DIR/SP/G                  HT/PER
                 (UTC)          (F)     (DEG/KT/KT) (MB)    (MI)  (FT/S)
NY HARB ENTRANCE 0500            25 38  340/ 23/ 27 1027.3          3/ 4
4S FIRE IS       0400               32                N/A           2/10
20S FIRE ISLAND  0400               36              1026.6          4/ 5
23SW MTP         0500                                 N/A           4/ 4
HUDSON CANYON    NOT AVBL
EXECUTION ROCKS  NOT AVBL
WESTERN LI SOUND NOT AVBL
CENTRAL LI SOUND NOT AVBL
EASTERN LI SOUND NOT AVBL
ROBBINS REEF     0500            21     350/ 14/ 18 1027.6
$$


>>>>>>>>>>>>>>>>>>>>>>>>>>>> KEY <<<<<<<<<<<<<<<<<<<<<<<<<<<
>                                                          <
>     SKY/WX - SKY CONDITION/PRESENT WEATHER               <
>     TMP    - TEMPERATURE IN FAHRENHEIT                   <
>     DP     - DEWPOINT IN FAHRENHEIT                      <
>     RH     - RELATIVE HUMIDITY IN PERCENT                <
>     WIND   - DIRECTION AND SPEED IN MPH                  <
>     PRES   - MEAN SEA LEVEL PRESSURE IN INCHES OF HG     <
>     WCI    - WIND CHILL INDEX                            <
>     VSB    - VISIBILITY IN MILES                         <
>     HX     - HEAT INDEX                                  <
>     TC     - TEMPERATURE IN CELSIUS                      <
>     VRB    - VARIABLE WIND DIRECTION                     <
>                                                          <
>>>>>>>>>>>>>>>>>>>>>>>>>>>> KEY <<<<<<<<<<<<<<<<<<<<<<<<<<<





USA.gov is the U.S. government's official web portal to all federal, state and local government web resources and services.